TimeCDT,TemperatureF,Dew PointF,Humidity,Sea Level PressureIn,VisibilityMPH,Wind Direction,Wind SpeedMPH,Gust SpeedMPH,PrecipitationIn,Events,Conditions,WindDirDegrees,DateUTC
12:53 AM,66.0,55.0,68,30.11,10.0,SSW,6.9,-,N/A,,Clear,200,2013-08-18 05:53:00
1:53 AM,64.9,55.0,70,30.11,10.0,SSW,6.9,-,N/A,,Clear,200,2013-08-18 06:53:00
2:53 AM,63.0,54.0,72,30.11,10.0,Variable,3.5,-,N/A,,Clear,0,2013-08-18 07:53:00
3:53 AM,62.1,54.0,75,30.11,10.0,SW,4.6,-,N/A,,Clear,230,2013-08-18 08:53:00
4:53 AM,61.0,55.0,81,30.12,10.0,SSW,4.6,-,N/A,,Clear,210,2013-08-18 09:53:00
5:53 AM,60.1,55.0,83,30.12,10.0,South,5.8,-,N/A,,Clear,170,2013-08-18 10:53:00
6:53 AM,61.0,55.0,81,30.13,10.0,South,5.8,-,N/A,,Clear,190,2013-08-18 11:53:00
7:53 AM,64.0,55.9,75,30.13,10.0,SSW,3.5,-,N/A,,Clear,200,2013-08-18 12:53:00
8:53 AM,68.0,57.0,68,30.13,10.0,South,5.8,-,N/A,,Clear,180,2013-08-18 13:53:00
9:53 AM,73.0,57.9,59,30.13,10.0,SSW,5.8,-,N/A,,Clear,200,2013-08-18 14:53:00
10:53 AM,78.1,57.9,50,30.12,10.0,South,10.4,17.3,N/A,,Clear,180,2013-08-18 15:53:00
11:53 AM,80.1,55.9,43,30.09,10.0,SSW,12.7,-,N/A,,Clear,200,2013-08-18 16:53:00
12:53 PM,82.0,54.0,38,30.07,10.0,South,19.6,27.6,N/A,,Partly Cloudy,180,2013-08-18 17:53:00
1:53 PM,82.9,55.9,39,30.04,10.0,SW,18.4,23.0,N/A,,Partly Cloudy,220,2013-08-18 18:53:00
2:53 PM,82.9,55.9,39,30.06,10.0,SSW,13.8,18.4,N/A,,Partly Cloudy,200,2013-08-18 19:53:00
3:53 PM,82.0,55.9,41,30.06,10.0,SSW,9.2,21.9,N/A,,Scattered Clouds,210,2013-08-18 20:53:00
4:53 PM,82.0,55.9,41,30.04,10.0,South,12.7,-,N/A,,Clear,190,2013-08-18 21:53:00
5:53 PM,80.1,55.9,43,30.03,10.0,SSW,11.5,-,N/A,,Clear,200,2013-08-18 22:53:00
6:53 PM,79.0,57.0,47,30.02,10.0,SSW,9.2,-,N/A,,Clear,200,2013-08-18 23:53:00
7:53 PM,75.0,57.0,53,30.01,10.0,South,8.1,-,N/A,,Clear,190,2013-08-19 00:53:00
8:53 PM,72.0,59.0,64,30.00,10.0,SSE,8.1,-,N/A,,Clear,160,2013-08-19 01:53:00
9:53 PM,71.1,59.0,66,30.00,10.0,South,6.9,-,N/A,,Clear,170,2013-08-19 02:53:00
10:53 PM,70.0,57.9,65,30.00,10.0,South,6.9,-,N/A,,Clear,190,2013-08-19 03:53:00
11:53 PM,71.1,57.0,61,30.01,10.0,South,4.6,-,N/A,,Overcast,190,2013-08-19 04:53:00